Simultaneous Nadir Overpasses (SNOs) Predictions

Prediction of SNOs between AURA and NPP Satellite Orbit:

Table of predicted SNOs for the next 14.0 days since TLE Epoch: 3/30/2017
Index Date (AURA) Time (AURA) Lat,Lon (AURA) SZA (AURA ) Date (NPP) Time (NPP) Lat,Lon (NPP) SZA (NPP ) Distance(km) Time Diff (sec)
1 04/01/2017 11:25:18 79.35, -95.59 88.16 04/01/2017 11:24:20 79.36, -95.46 88.18 3.06 58
2 04/01/2017 12:14:40 -79.55, 73.43 92.15 04/01/2017 12:15:00 -79.55, 73.41 92.16 0.44 20
3 04/04/2017 03:41:46 79.37, 20.42 87.09 04/04/2017 03:41:16 79.37, 20.35 87.12 1.56 30
4 04/04/2017 04:31:06 -79.65,-170.01 93.34 04/04/2017 04:31:53 -79.65,-169.94 93.39 1.48 47
5 04/06/2017 19:58:11 79.50, 137.17 85.87 04/06/2017 19:58:08 79.50, 137.22 85.86 1.26 3
6 04/06/2017 20:47:06 -80.60, -45.73 95.94 04/06/2017 20:48:20 -80.47, -45.34 96.04 16.05 74
7 04/09/2017 11:25:16 -79.36, 84.50 94.95 04/09/2017 11:24:23 -79.37, 84.61 94.93 2.45 53
8 04/09/2017 12:14:37 79.54,-106.66 84.79 04/09/2017 12:15:02 79.54,-106.72 84.78 1.30 25
9 04/12/2017 03:41:42 -79.44,-159.13 96.05 04/12/2017 03:41:17 -79.44,-159.08 96.04 0.97 25




NCC Satellite Simultaneous Nadir Overpasses (SNOs) Prediction Service
